Theta_e
352 353 354 358 363 361 363 359 357 358 358 350 351 356 357 354 357 361 354 352 352 350 332 335 331 329 327 325 328 330 330 332 334 336 336 331 329 328 327 335 342 340 334 333 333 337 333 339 338
352 354 354 357 363 363 363 357 359 354 353 350 353 355 354 355 351 352 353 352 351 350 333 329 329 328 326 325 325 329 329 329 330 335 335 334 332 329 327 329 332 337 340 338 335 334 336 334 330
355 355 358 363 358 363 361 354 354 353 352 352 352 353 355 352 351 352 352 352 351 349 349 325 325 326 326 325 326 327 328 328 329 332 334 334 334 329 327 327 329 331 334 337 337 337 336 332 332
353 357 358 360 360 359 357 354 351 352 349 353 353 358 352 352 352 352 351 351 350 350 352 332 328 330 330 332 330 330 330 329 331 333 334 334 333 329 328 328 329 329 328 330 335 338 337 336 334
354 357 362 360 354 353 353 353 352 353 351 352 354 356 352 352 353 351 351 350 351 353 348 339 338 334 336 337 337 338 339 339 339 337 335 336 335 330 330 329 327 328 333 335 337 340 336 335 335
354 352 359 359 352 351 351 351 351 351 349 352 353 355 355 353 351 351 351 350 355 354 349 340 341 340 338 338 340 341 341 341 342 342 340 339 340 340 332 329 329 333 337 339 340 338 338 336 336
354 357 358 354 354 353 351 350 351 351 351 353 352 355 353 352 351 351 351 352 354 353 350 340 341 341 341 340 340 341 341 342 342 341 340 339 337 337 335 332 334 336 337 339 339 340 339 337 338
350 354 352 353 354 355 348 349 352 349 341 348 353 356 354 351 351 351 351 352 353 352 350 347 344 341 341 341 340 340 342 342 339 340 340 335 333 335 335 333 339 337 337 338 338 339 341 338 337
348 353 353 350 352 355 348 347 351 347 346 349 351 355 353 352 350 350 351 350 352 352 351 349 348 346 346 342 339 337 339 340 333 334 336 339 339 336 335 338 336 330 334 337 338 339 339 335 335
348 351 349 347 346 346 346 348 346 350 347 345 355 355 353 352 350 350 352 353 354 354 352 349 348 351 346 349 342 339 338 334 335 331 331 332 341 337 335 331 332 337 341 339 340 339 338 336 341
343 348 344 343 344 344 344 346 349 345 344 343 351 355 354 352 351 349 350 353 353 354 353 349 349 348 347 348 346 335 341 336 336 339 339 339 340 336 334 337 343 343 346 345 347 346 347 345 343
344 342 342 342 341 342 345 344 350 351 343 348 351 354 355 353 352 351 350 350 351 350 351 353 350 349 347 348 347 344 340 337 345 344 342 341 341 340 336 339 340 344 345 346 345 345 344 347 346
343 339 338 338 339 340 340 345 347 350 352 350 357 357 356 355 353 352 351 351 350 351 350 352 350 349 348 350 350 346 345 342 345 345 345 343 341 342 341 342 343 344 346 346 346 347 343 346 347
340 338 337 338 340 341 342 345 345 353 350 350 356 358 356 355 354 353 352 352 350 349 350 350 349 348 347 349 349 349 346 347 348 347 345 345 343 343 341 340 343 346 346 346 349 347 345 345 344
338 337 335 339 341 342 342 348 352 353 353 353 352 357 355 356 355 354 353 352 352 350 349 348 348 349 349 348 350 349 346 351 347 347 347 346 342 342 341 340 339 345 347 345 347 347 351 348 349
339 337 339 342 340 344 342 352 343 346 351 352 357 357 354 356 353 349 347 348 348 350 351 351 350 349 349 349 349 347 345 349 349 347 346 345 341 340 340 340 337 345 347 346 349 349 348 347 348
338 340 342 343 341 342 344 349 342 347 350 353 355 354 354 354 351 347 347 345 350 351 350 350 352 352 352 348 346 346 345 348 350 349 345 346 344 341 341 338 335 342 345 347 348 351 348 347 348
340 341 342 344 343 342 345 353 351 349 350 350 350 352 353 354 352 349 347 344 342 349 352 351 351 351 351 351 349 347 351 349 350 348 346 346 346 341 340 340 339 338 345 346 343 346 348 348 349
340 340 339 341 341 340 342 344 347 349 349 348 350 354 355 354 353 348 345 341 348 346 346 353 348 351 351 350 347 347 350 348 349 350 347 347 342 344 341 341 340 338 342 345 339 340 342 344 350
339 340 337 341 340 339 345 347 348 348 347 346 349 351 352 352 351 350 347 340 345 343 349 351 352 349 350 349 350 349 348 350 350 347 343 342 345 344 340 341 344 342 339 345 342 339 342 342 349
336 338 338 340 341 340 339 356 352 350 347 346 348 349 349 349 348 347 349 349 350 351 351 352 350 349 349 351 349 349 351 349 347 344 342 343 342 344 343 342 344 344 342 341 342 340 342 346 347
335 336 339 338 339 340 342 349 350 348 346 347 348 348 348 348 348 349 352 350 350 352 354 350 346 351 352 349 352 349 348 347 344 344 344 345 344 341 343 345 343 343 343 341 348 346 345 345 344
335 337 338 337 338 338 342 354 350 344 350 348 347 347 345 349 346 347 347 348 349 348 350 353 354 352 354 348 352 349 346 345 345 345 346 345 345 347 344 342 343 343 343 342 345 348 349 348 349
335 336 336 337 338 340 342 344 352 347 347 347 346 346 345 344 343 344 344 344 351 352 351 352 349 348 353 352 347 344 348 345 346 347 346 346 346 346 347 344 344 344 343 342 345 347 349 345 348
335 335 338 339 341 349 343 343 348 345 345 345 346 345 343 344 345 348 349 349 351 351 352 353 353 352 356 357 352 348 347 347 349 348 349 346 346 347 348 347 346 346 345 344 346 345 344 343 343
335 335 338 343 347 346 344 353 350 342 343 344 344 344 343 344 345 344 346 349 350 352 354 355 358 359 357 355 355 355 352 354 351 351 352 353 351 348 349 348 347 347 348 345 346 346 345 341 343
335 336 337 338 339 342 344 345 345 343 345 343 342 343 343 344 344 346 348 349 350 352 352 352 358 359 360 358 356 356 354 355 351 352 353 355 352 351 350 349 349 349 347 349 348 347 348 347 350
334 338 341 339 343 345 351 346 348 342 345 344 342 342 343 344 345 346 347 349 350 348 351 353 358 360 360 357 358 358 355 354 357 350 349 352 352 353 353 352 351 349 350 349 348 349 348 345 344
334 335 336 339 339 342 354 349 342 344 343 344 343 342 344 344 345 346 347 348 349 349 353 355 356 357 359 358 356 356 353 354 356 354 352 351 351 351 352 350 349 349 349 349 349 348 349 351 349
335 335 334 337 341 341 345 350 343 344 341 342 342 343 343 344 344 346 347 349 352 354 356 358 357 354 343 339 340 341 336 344 353 352 353 352 350 349 351 351 351 349 350 349 349 350 347 349 348
Wind_Speed
3 11 12 7 1 3 5 7 11 18 11 14 13 20 14 21 6 9 26 25 26 24 24 24 23 22 20 21 23 22 20 19 18 16 16 16 15 14 14 14 13 14 14 13 12 12 12 12 12
4 7 8 8 4 2 5 13 12 19 21 10 17 21 25 17 23 29 27 26 23 23 24 25 23 22 20 19 20 18 15 14 14 13 12 12 12 12 13 13 12 11 11 11 10 10 10 11 11
8 6 10 2 4 2 4 4 9 16 15 5 12 24 12 24 23 22 27 28 25 22 22 24 24 22 21 19 18 16 15 13 11 11 10 9 8 9 10 10 9 9 8 8 7 8 8 9 10
10 3 6 6 11 17 11 3 10 15 15 24 6 12 19 18 18 25 28 26 24 24 23 24 24 22 20 18 17 16 14 13 11 9 8 7 7 7 7 7 6 6 5 5 5 4 5 4 5
8 4 2 4 11 8 13 14 25 2 7 19 22 18 17 11 22 26 27 25 27 28 18 26 23 22 21 19 17 15 14 13 11 10 9 6 5 4 4 4 3 4 4 3 2 2 2 2 2
7 6 3 1 7 5 8 9 15 10 11 16 11 20 14 13 20 25 27 26 29 23 19 25 24 21 19 18 16 14 12 12 12 11 11 9 5 2 1 1 2 2 2 3 2 3 4 3 5
11 3 9 7 10 6 6 7 8 20 21 17 15 14 13 18 22 22 26 28 24 22 21 25 25 22 19 17 16 14 13 12 12 11 10 10 7 5 3 0 0 2 4 4 2 5 5 4 6
9 6 5 3 9 10 5 8 25 16 17 7 15 10 17 21 22 20 27 23 26 22 17 21 23 21 19 18 15 13 13 12 7 8 7 11 12 12 6 4 3 4 6 7 6 6 6 6 6
3 4 3 12 13 10 5 8 16 19 6 11 9 23 23 23 22 21 22 28 26 21 21 17 18 19 17 15 15 14 13 14 12 12 14 7 13 15 11 7 6 9 13 10 9 8 7 5 5
14 3 4 15 2 12 4 6 5 21 30 25 10 21 23 22 23 23 22 29 24 23 21 22 17 17 13 11 13 15 13 13 13 11 14 15 9 18 14 10 11 8 10 8 7 3 5 5 6
8 1 2 3 11 16 13 18 12 28 9 12 11 16 24 22 23 25 25 24 23 22 23 19 18 17 15 20 14 14 14 12 13 11 11 9 8 15 14 10 6 8 7 4 9 2 5 9 6
10 8 1 6 3 1 12 3 32 15 14 19 24 19 22 22 25 24 28 26 25 21 20 22 20 22 20 17 17 12 13 12 7 6 7 7 6 10 12 10 9 5 3 9 2 2 7 7 12
12 4 2 7 3 7 3 7 5 10 4 11 17 18 17 20 25 23 24 22 22 22 21 24 24 21 16 18 14 13 10 10 13 13 9 7 7 7 9 9 6 3 4 2 6 3 9 10 13
11 7 8 6 5 2 5 3 3 10 5 3 11 20 16 18 23 26 19 21 24 27 24 19 23 20 21 19 14 13 12 8 10 7 9 7 8 10 8 9 7 8 7 5 3 8 9 7 11
13 8 9 10 8 1 1 3 14 4 2 5 12 14 13 12 15 30 25 20 26 25 24 25 22 20 17 18 15 13 11 11 9 7 8 9 9 9 9 6 11 6 1 1 6 5 7 8 6
13 13 11 5 6 6 5 6 18 27 5 8 12 8 5 3 11 8 5 10 8 15 22 21 17 17 18 19 13 12 11 11 12 9 6 9 7 8 11 11 12 9 4 6 3 7 8 6 8
10 10 5 12 12 4 6 6 19 22 5 12 13 8 13 15 20 16 16 19 18 20 19 20 17 13 15 16 16 13 11 9 10 10 11 12 10 8 10 11 9 8 7 6 4 10 10 6 7
6 2 12 10 1 10 5 14 9 6 3 4 11 13 11 8 8 12 20 17 10 14 13 13 17 12 14 12 13 12 13 12 13 17 13 11 10 9 9 9 11 11 4 11 9 8 7 5 4
11 16 11 13 8 4 1 4 6 6 3 2 11 17 7 9 11 13 17 11 12 10 10 11 12 14 13 15 10 10 10 9 11 11 6 7 5 10 9 9 11 14 11 13 7 4 7 7 5
9 12 12 7 7 6 9 5 6 5 4 7 8 8 8 9 14 14 14 11 19 18 14 13 13 15 14 13 10 8 5 5 7 7 6 8 10 11 10 11 11 13 13 13 8 5 7 12 12
12 14 2 4 9 9 9 7 6 5 6 2 10 10 9 13 15 17 20 20 17 19 17 17 16 12 13 11 10 8 8 8 8 8 6 5 9 13 13 12 14 13 16 16 7 6 7 12 8
16 14 9 10 11 9 8 4 4 9 11 7 14 15 14 17 19 19 18 16 16 16 13 14 14 12 11 11 7 7 7 9 6 8 7 6 9 10 11 14 15 15 16 18 14 10 8 8 8
17 7 14 15 13 17 13 7 6 7 8 10 13 18 18 23 19 17 19 16 15 16 14 12 10 10 10 5 8 5 8 7 7 8 7 8 11 11 10 12 16 15 16 16 16 13 10 11 7
19 12 11 14 14 13 10 11 6 8 15 16 17 17 16 23 18 18 16 19 17 17 16 10 10 8 11 7 8 7 8 6 6 5 6 7 10 9 10 12 14 17 17 18 20 15 14 11 13
15 13 11 10 11 3 11 4 3 17 21 12 18 19 18 17 19 19 21 20 20 17 17 12 8 8 7 8 6 7 5 6 5 4 2 2 4 9 8 8 12 14 16 19 19 21 21 15 13
11 17 12 6 7 6 23 9 4 14 15 19 20 23 23 22 19 17 15 18 15 12 12 13 9 6 5 6 7 6 6 4 4 3 4 3 4 4 5 7 10 10 12 17 19 18 17 14 11
18 15 9 6 9 8 2 4 12 25 22 19 22 24 25 22 21 19 17 13 11 10 8 8 9 6 8 8 4 6 6 6 3 4 4 5 3 7 7 6 7 11 14 15 16 17 15 16 17
20 7 5 2 5 14 5 2 2 25 12 17 19 24 25 24 22 20 17 15 13 12 12 11 10 5 4 1 4 6 5 5 6 9 6 5 7 7 9 9 9 11 12 13 17 20 18 17 19
15 17 14 16 7 6 7 4 18 25 23 15 22 25 26 24 24 21 18 15 13 12 17 13 8 6 7 4 4 4 5 6 7 5 7 8 7 10 10 13 13 12 14 16 16 18 20 20 21
19 18 19 12 13 13 5 5 11 15 12 19 24 25 25 24 22 24 19 19 12 11 13 14 11 7 7 8 7 7 7 7 1 4 6 8 11 11 10 12 14 14 16 14 17 21 19 23 26
Wind_Direction
36 9 347 287 204 27 226 107 113 40 4 77 55 91 102 135 162 122 141 134 142 142 150 148 146 147 146 144 146 140 130 124 120 115 109 105 100 97 94 91 85 84 88 91 91 98 100 100 99
291 294 268 268 337 86 35 65 83 139 227 119 82 85 80 90 109 128 128 138 136 144 144 148 146 148 149 146 150 156 150 134 125 122 114 106 99 96 95 95 97 91 81 83 87 91 97 100 99
13 322 279 161 79 317 115 136 171 145 94 84 108 92 77 109 120 131 136 140 139 140 145 146 144 146 146 146 147 148 152 151 135 131 121 112 106 97 94 94 91 89 91 83 83 89 99 113 103
319 325 290 299 149 214 96 306 69 23 113 100 121 75 79 116 123 134 139 140 140 145 158 150 147 145 146 144 145 144 142 147 143 133 131 126 110 99 92 87 84 81 78 80 86 100 116 125 130
288 105 191 303 70 89 134 90 79 294 63 93 99 88 96 98 121 140 143 142 143 150 166 159 152 150 150 149 150 149 149 154 156 152 151 133 114 107 103 91 66 62 55 46 60 161 164 181 180
44 4 41 229 101 64 86 88 129 172 87 100 73 85 99 129 132 147 147 143 141 148 156 163 159 155 155 157 159 163 166 170 168 168 165 161 160 155 127 76 38 21 25 33 353 284 265 268 228
162 251 246 162 47 117 127 132 111 32 30 93 102 86 119 129 142 149 143 145 137 142 163 162 163 163 161 164 168 173 175 177 182 187 189 204 217 202 204 216 284 323 330 334 313 295 280 261 249
306 177 93 318 77 299 115 95 106 93 349 307 130 122 138 144 147 151 151 139 134 146 150 161 166 169 168 169 173 178 182 191 202 228 218 250 241 238 201 216 262 287 313 310 322 309 294 281 260
327 21 97 88 140 199 123 131 126 123 57 288 45 138 148 149 151 152 145 156 143 151 156 169 175 172 172 177 179 183 192 202 217 231 237 280 253 232 216 221 265 296 295 289 299 309 314 279 258
103 211 275 132 261 10 105 100 265 81 30 345 50 122 145 154 156 158 146 157 157 158 163 175 175 176 169 167 191 185 196 222 224 251 247 263 267 216 224 232 276 285 303 283 289 305 303 261 241
111 318 294 78 83 85 311 287 100 101 111 188 241 150 150 160 163 167 168 169 170 168 167 175 178 172 167 194 206 207 204 221 230 243 249 252 261 210 223 233 255 269 297 277 262 249 287 246 348
354 170 359 12 56 215 207 337 123 119 180 168 216 196 162 170 170 174 178 170 166 168 178 172 174 168 181 199 209 226 216 230 264 266 241 239 237 217 223 231 246 233 224 259 129 345 318 262 288
185 169 239 187 251 253 303 59 13 48 121 207 169 160 178 184 172 175 173 160 167 173 169 174 174 178 190 200 203 222 212 220 229 247 254 255 231 213 214 217 237 254 209 246 265 284 233 240 263
313 243 262 180 237 169 269 92 306 41 19 156 155 168 179 199 187 168 166 166 174 179 165 164 178 188 198 201 214 218 227 201 242 237 253 248 244 240 217 230 208 210 222 233 296 272 251 257 295
258 248 232 220 183 117 29 136 8 33 40 113 204 151 183 193 129 153 172 184 172 184 197 203 199 194 199 206 208 212 217 204 238 237 252 249 237 227 215 208 189 192 337 217 244 256 238 260 267
231 243 241 34 193 140 248 52 323 291 202 136 117 128 185 141 182 127 256 99 167 179 182 199 200 195 205 212 209 216 202 215 251 249 253 258 227 209 210 208 193 195 189 232 244 268 271 256 249
206 235 214 209 243 274 198 188 228 263 260 129 125 175 188 116 112 134 156 182 174 178 197 193 200 202 194 199 219 216 214 211 245 261 251 244 233 219 203 202 202 201 199 233 228 252 285 326 342
271 342 210 170 276 242 334 169 174 195 291 206 200 198 196 168 151 159 161 168 187 188 176 177 185 176 194 203 231 221 207 210 227 250 257 227 231 230 213 211 214 206 206 262 237 249 279 316 314
253 199 233 178 136 245 319 85 111 149 191 167 93 128 141 148 156 139 132 157 170 207 193 210 190 204 204 216 210 209 212 225 216 252 267 235 239 246 225 221 225 222 217 246 254 277 269 260 259
237 271 254 113 166 213 195 127 123 173 85 5 84 79 103 139 145 145 155 176 189 180 185 194 212 215 211 210 202 208 191 245 226 233 262 247 241 238 237 236 225 229 231 247 248 267 275 260 245
251 248 283 290 242 226 255 91 58 351 117 87 98 116 143 155 157 168 184 203 186 174 187 188 204 214 214 208 203 193 162 229 223 235 285 255 258 253 249 242 229 235 231 235 244 253 246 279 310
241 229 189 253 248 246 199 214 33 315 338 179 145 160 169 159 167 175 180 187 130 164 192 208 206 203 218 205 194 201 198 217 244 266 263 232 258 265 245 234 235 236 235 230 237 251 252 251 259
261 194 266 267 239 256 189 69 311 332 302 245 175 176 156 167 163 163 151 127 148 161 166 190 189 193 194 171 170 216 225 242 251 265 266 263 258 250 249 246 229 232 234 226 220 235 253 248 268
244 251 258 261 262 254 139 208 238 221 228 225 170 173 158 149 147 138 146 164 166 161 164 171 172 167 175 199 173 191 221 235 246 262 267 259 258 252 245 237 236 231 231 228 217 227 248 243 255
251 259 259 233 244 343 324 277 184 217 231 216 165 158 154 153 148 156 164 159 172 163 174 183 182 176 182 211 192 209 226 237 255 274 313 251 278 254 254 244 233 231 232 224 218 224 232 244 249
212 236 256 285 318 303 295 17 329 262 225 179 165 156 162 161 155 155 159 157 166 160 174 182 187 170 191 216 229 242 254 235 238 253 255 275 277 285 278 268 228 231 227 219 225 227 234 241 243
250 224 175 208 247 265 334 58 319 285 243 157 162 162 161 167 161 159 164 163 167 167 175 168 163 173 207 228 209 261 254 245 254 200 216 258 268 277 268 257 247 231 237 226 221 238 237 234 239
244 122 66 307 244 248 40 36 220 298 272 168 161 167 166 167 165 162 164 164 164 167 161 156 145 149 163 181 230 226 263 276 258 233 240 221 199 231 238 226 250 237 234 243 237 230 236 252 241
218 241 243 211 243 283 155 192 164 236 259 180 165 172 171 171 167 157 163 162 177 191 157 156 145 150 148 150 169 218 251 262 280 289 269 254 261 242 239 248 251 238 236 244 248 241 230 249 250
245 237 229 238 243 215 104 188 209 219 243 222 170 174 174 168 165 157 169 166 164 124 139 145 155 145 105 86 70 44 29 39 40 320 296 273 261 266 266 252 251 249 246 237 243 253 248 245 249